Home > Weather > Djibouti > Past weeks

Flag for Djibouti Weather for the Past 2 Weeks in Djibouti, Djibouti

Now
86 °F

Passing clouds.


Feels Like: 102 °F
Forecast: 81 / 92 °F
Wind: 15 mph from East

Location: Djibouti Ambouli

Current Time: May 4, 2016 at 8:54:07 PM

Latest Report: May 4, 2016 at 8:00 PM


Visibility: N/A

Pressure: 29.80 "Hg

Humidity: 84%

Dew Point: 81 °F

Location of DjiboutiLocation

Historic Weather in Djibouti — Graph

°F

Djibouti Temperature Yesterday

Maximum temperature yesterday: 93 °F (at 2:00 PM)
Minimum temperature yesterday: 82 °F (at 5:00 AM)
Average temperature yesterday: 87 °F

High & Low Weather Summary for the Past Weeks

 TemperatureHumidityPressure
High95 °F (May 2, 11:00 AM)100% (Apr 23, 7:00 AM)29.98 "Hg (Apr 23, 7:00 AM)
Low68 °F (Apr 23, 7:00 AM)56% (Apr 24, 1:00 PM)29.68 "Hg (Apr 24, 4:00 PM)
Average88 °F74%29.83 "Hg
* Reported Apr 19 8:00 PM — May 4 7:00 PM, Djibouti, Weather by CustomWeather, © 2016

Note: Actual official high and low records may vary slightly from our data, if they occured in-between our weather recording intervals... More about our weather records

Advertising

Djibouti Weather History for the Previous 24 Hours

Scroll right to see more
 ConditionsComfort  
Time TempWeatherWind HumidityBarometerVisibility
7:00 PM
Wed, May 4
86 °FPassing clouds.15 mph84%29.80 "HgN/A
5:00 PM88 °FScattered clouds.15 mph70%29.74 "HgN/A
4:00 PM88 °FScattered clouds.15 mph75%29.74 "HgN/A
3:00 PM90 °FScattered clouds.15 mph71%29.77 "HgN/A
2:00 PM91 °FPassing clouds.16 mph67%29.77 "HgN/A
1:00 PM93 °FScattered clouds.17 mph67%29.80 "HgN/A
12:00 PM93 °FSunny.17 mph67%29.83 "Hg10 mi
10:00 AM90 °FScattered clouds.2 mph75%29.89 "HgN/A
9:00 AM90 °FSunny.2 mph75%29.89 "Hg10 mi
8:00 AM86 °FScattered clouds.2 mph84%29.86 "HgN/A
7:00 AM84 °FScattered clouds.2 mph89%29.86 "HgN/A
6:00 AM84 °FPassing clouds.2 mph89%29.83 "HgN/A
4:00 AM84 °FPassing clouds.6 mph89%29.83 "HgN/A
1:00 AM86 °FPassing clouds.6 mph84%29.83 "HgN/A
12:00 AM86 °FPassing clouds.6 mph84%29.86 "HgN/A
10:00 PM
Tue, May 3
86 °FPassing clouds.5 mph84%29.89 "HgN/A
Weather by CustomWeather, © 2016

See weather overviewHow to use our weather pages